This is the latest recevied weather packets stored in our database for station/object OE3MHU-13. If no packets are shown the sender has not sent any weather packets the latest 10 day(s).
| Time | Temp. | Humidity | Pressure | Rain* | Wind** | Luminosity | Snow |
|---|---|---|---|---|---|---|---|
| 1777429584 | 6.11° C | 56% | 1024.4 hPa | 0 mm | - | - | - |
| 1777429282 | 5.56° C | 57% | 1024.4 hPa | 0 mm | - | - | - |
| 1777428982 | 5.56° C | 58% | 1024.4 hPa | 0 mm | - | - | - |
| 1777428683 | 5.56° C | 59% | 1024.3 hPa | 0 mm | - | - | - |
| 1777428383 | 6.11° C | 59% | 1024.2 hPa | 0 mm | - | - | - |
| 1777428079 | 6.11° C | 58% | 1024.3 hPa | 0 mm | - | - | - |
| 1777427779 | 6.11° C | 58% | 1024.2 hPa | 0 mm | - | - | - |
| 1777427479 | 6.11° C | 57% | 1024.2 hPa | 0 mm | - | - | - |
| 1777427179 | 6.67° C | 56% | 1024.1 hPa | 0 mm | - | - | - |
| 1777426878 | 6.67° C | 56% | 1024.1 hPa | 0 mm | - | - | - |
| 1777426580 | 6.67° C | 56% | 1024.1 hPa | 0 mm | - | - | - |
| 1777426278 | 6.67° C | 55% | 1024.1 hPa | 0 mm | - | - | - |
| 1777425979 | 6.67° C | 55% | 1024 hPa | 0 mm | - | - | - |
| 1777425677 | 6.67° C | 55% | 1024.1 hPa | 0 mm | - | - | - |
| 1777425378 | 7.22° C | 55% | 1024.1 hPa | 0 mm | - | - | - |
| 1777425077 | 7.22° C | 55% | 1024.2 hPa | 0 mm | - | - | - |
| 1777424777 | 7.22° C | 55% | 1024.1 hPa | 0 mm | - | - | - |
| 1777424475 | 7.22° C | 55% | 1024.1 hPa | 0 mm | - | - | - |
| 1777424317 | 7.22° C | 53% | 1024 hPa | 0 mm | - | - | - |
| 1777424175 | 7.22° C | 53% | 1024 hPa | 0 mm | - | - | - |
| 1777423871 | 7.78° C | 52% | 1024.1 hPa | 0 mm | - | - | - |
| 1777423569 | 7.78° C | 52% | 1024 hPa | 0 mm | - | - | - |
| 1777423266 | 7.78° C | 51% | 1024.2 hPa | 0 mm | - | - | - |
| 1777422967 | 8.33° C | 49% | 1024.1 hPa | 0 mm | - | - | - |
| 1777422667 | 8.33° C | 48% | 1024.1 hPa | 0 mm | - | - | - |
* Rain latest hour (hover to see other rain measurements)
** Current wind speed in m/s (hover to see current wind gust speed)